Hoquiam, WA
on Tuesday, February 5, 2013

Tuesday
Previous Day Next Day
Daily Summary
 ActualAverageRecord
Temperature
Mean Temperature °F 43°F  
Max Temperature 50°F 49°F 61°F (1987)
Min Temperature 45°F 38°F 14°F (1989)
Degree Days
Heating Degree Days 18 22  
Month to date heating degree days 110  
Cooling Degree Days 0 0  
Month to date cooling degree days 0  
Year to date cooling degree days 0  
Moisture
Dew Point 44°F   
Average Humidity 86    
Maximum Humidity 100    
Minimum Humidity 76    
Precipitation
Precipitation 0.24 in 0.28 in 1.16 in (1996)
Month to date precipitation 1.41  
Year to date precipitation 11.74  
Wind
Wind Speed 15 mph   
Max Wind Speed 21 mph   
Max Gust Speed 29 mph   
Visibility 9 miles   
Events Rain   

Key: T is trace of precipitation, MM is missing value
Source: NWS Daily Summary
Time(PST)TemperatureDew PointHumidity Pressure Visibility Wind DirectionWind SpeedGust SpeedPrecipitationEvents Conditions
12:28 AM 46.4°F 39.2°F 76% 29.90 in 10.0 miles South 13.8 mph 24.2 mph N/A   Overcast
1:28 AM 46.4°F 42.8°F 87% 29.89 in 6.0 miles SSE 13.8 mph - N/A   Overcast
1:53 AM 46.0°F 43.0°F 89% 29.89 in 5.0 miles SSE 13.8 mph - 0.01 in Rain Light Rain
2:53 AM 46.0°F 43.0°F 89% 29.88 in 6.0 miles SSE 19.6 mph 25.3 mph 0.06 in Rain Light Rain
3:16 AM 46.4°F 42.8°F 87% 29.85 in 10.0 miles SSE 17.3 mph - 0.03 in Rain Light Rain
3:28 AM 46.4°F 42.8°F 87% 29.85 in 10.0 miles SSE 16.1 mph 25.3 mph 0.04 in Rain Light Rain
3:45 AM 46.4°F 42.8°F 87% 29.84 in 10.0 miles SSE 18.4 mph 28.8 mph 0.04 in Rain Light Rain
3:53 AM 46.9°F 43.0°F 86% 29.86 in 10.0 miles SSE 18.4 mph 28.8 mph 0.04 in   Overcast
4:08 AM 46.4°F 44.6°F 93% 29.84 in 10.0 miles SSE 19.6 mph 26.5 mph 0.01 in Rain Light Rain
4:53 AM 46.9°F 44.1°F 90% 29.85 in 5.0 miles SSE 17.3 mph 25.3 mph 0.05 in Rain Light Rain
5:01 AM 46.4°F 44.6°F 93% 29.84 in 5.0 miles South 13.8 mph - 0.01 in Rain Light Rain
5:17 AM 46.4°F 44.6°F 93% 29.84 in 4.0 miles South 11.5 mph - 0.03 in   Overcast
5:42 AM 46.4°F 46.4°F 100% 29.84 in 6.0 miles South 15.0 mph - 0.04 in Rain Light Rain
5:53 AM 46.9°F 46.0°F 97% 29.85 in 10.0 miles South 16.1 mph - 0.05 in Rain Light Rain
6:24 AM 48.2°F 46.4°F 93% 29.83 in 10.0 miles South 12.7 mph - 0.01 in   Scattered Clouds
6:45 AM 48.2°F 46.4°F 93% 29.83 in 10.0 miles South 11.5 mph - 0.01 in   Mostly Cloudy
6:53 AM 48.2°F 46.4°F 93% 29.83 in 10.0 miles South 11.5 mph - N/A   Overcast
7:30 AM 48.2°F 46.4°F 93% 29.83 in 10.0 miles South 10.4 mph - N/A   Overcast
7:53 AM 48.0°F 45.0°F 89% 29.85 in 10.0 miles South 12.7 mph - N/A   Overcast
8:20 AM 48.2°F 44.6°F 87% 29.84 in 10.0 miles South 11.5 mph - N/A   Mostly Cloudy
8:36 AM 48.2°F 44.6°F 87% 29.84 in 10.0 miles South 9.2 mph - N/A   Overcast
8:53 AM 48.0°F 46.0°F 93% 29.86 in 10.0 miles South 12.7 mph - N/A   Overcast
9:18 AM 46.4°F 41.0°F 81% 29.84 in 6.0 miles West 8.1 mph - 0.01 in Rain Light Rain
9:53 AM 48.0°F 44.1°F 86% 29.86 in 10.0 miles South 9.2 mph - 0.02 in   Scattered Clouds
10:03 AM 48.2°F 44.6°F 87% 29.86 in 10.0 miles South 10.4 mph - N/A   Mostly Cloudy
10:36 AM 48.2°F 44.6°F 87% 29.86 in 8.0 miles South 11.5 mph - N/A   Overcast
10:53 AM 48.9°F 45.0°F 86% 29.87 in 10.0 miles South 16.1 mph - N/A   Mostly Cloudy
11:05 AM 48.2°F 44.6°F 87% 29.86 in 10.0 miles South 12.7 mph - N/A   Mostly Cloudy
11:15 AM 50.0°F 44.6°F 82% 29.86 in 10.0 miles South 11.5 mph - N/A   Scattered Clouds
11:53 AM 50.0°F 43.0°F 77% 29.88 in 10.0 miles South 16.1 mph 24.2 mph N/A   Overcast
12:01 PM 50.0°F 42.8°F 76% 29.86 in 10.0 miles South 15.0 mph - N/A   Overcast
12:26 PM 50.0°F 42.8°F 76% 29.86 in 10.0 miles South 20.7 mph - N/A   Overcast
12:53 PM 50.0°F 43.0°F 77% 29.86 in 10.0 miles South 17.3 mph 26.5 mph N/A   Overcast
1:53 PM 48.9°F 43.0°F 80% 29.86 in 10.0 miles South 19.6 mph 27.6 mph N/A   Overcast
2:53 PM 48.9°F 43.0°F 80% 29.85 in 10.0 miles South 17.3 mph 25.3 mph N/A   Overcast
3:53 PM 48.9°F 44.1°F 83% 29.86 in 10.0 miles South 20.7 mph 25.3 mph 0.00 in   Mostly Cloudy
4:25 PM 48.2°F 42.8°F 82% 29.86 in 10.0 miles South 18.4 mph - N/A   Mostly Cloudy
4:32 PM 48.2°F 42.8°F 82% 29.86 in 10.0 miles South 16.1 mph - N/A   Mostly Cloudy
4:53 PM 48.0°F 43.0°F 83% 29.87 in 10.0 miles South 15.0 mph - N/A   Overcast
5:38 PM 48.2°F 42.8°F 82% 29.86 in 10.0 miles South 17.3 mph - 0.00 in   Overcast
5:53 PM 48.0°F 43.0°F 83% 29.88 in 10.0 miles South 18.4 mph - 0.00 in   Overcast
6:53 PM 48.0°F 43.0°F 83% 29.88 in 10.0 miles SSW 15.0 mph - N/A   Overcast
7:29 PM 46.4°F 42.8°F 87% 29.89 in 10.0 miles SSW 18.4 mph - 0.01 in Rain Light Rain
7:53 PM 46.9°F 43.0°F 86% 29.91 in 10.0 miles SSW 18.4 mph - 0.01 in   Mostly Cloudy
8:53 PM 45.0°F 41.0°F 86% 29.92 in 10.0 miles SW 16.1 mph - 0.00 in Rain Light Rain
9:53 PM 46.0°F 42.1°F 86% 29.95 in 9.0 miles WSW 15.0 mph 25.3 mph 0.00 in   Overcast
10:53 PM 46.4°F 42.8°F 87% 29.94 in 10.0 miles SSW 13.8 mph 19.6 mph N/A   Overcast
11:53 PM 46.0°F 41.0°F 83% 29.97 in 10.0 miles South 13.8 mph - N/A   Overcast
Moon Phase
Feb. 05 Feb. 10 Feb. 17 Feb. 25 Mar. 04
Sunrise:07:34 AM (PST) Moon Rise:03:30 AM (PST)2/5
Sunset:05:25 PM (PST) Moon Set:12:40 PM (PST)2/5

Copyright © 2014 The Weather Underground, Inc.